Weather History for Albany, GA

Change the Weather History Date:

Sunday, August 25, 2013

  Actual Average Record
Temperature  
Mean Temperature 78 °F 82 °F  
Max Temperature 87 °F 92 °F 104 °F (1938)
Min Temperature 69 °F 72 °F 60 °F (1969)
Degree Days  
Heating Degree Days 0 0  
Month to date heating degree days 0 0  
Since 1 June heating degree days 0 0  
Since 1 July heating degree days 0 0  
Cooling Degree Days 13 17  
Month to date cooling degree days 417 425  
Year to date cooling degree days 1730 1871  
Since 1 June cooling degree days 1375 1431  
Growing Degree Days 30 (Base 50)    
Moisture  
Dew Point 67 °F    
Average Humidity 71    
Maximum Humidity 93    
Minimum Humidity 48    
Precipitation  
Precipitation 0.00 in - 0.29 in (2008)
Month to date precipitation 8.37  
Year to date precipitation 41.30  
Sea Level Pressure  
Sea Level Pressure 30.24 in    
Wind  
Wind Speed 9 mph (ENE)    
Max Wind Speed 17 mph    
Max Gust Speed 22 mph    
Visibility 10 miles    
Events      
T = Trace of Precipitation, MM = Missing Value Source: NWS Daily Summary

Daily Weather History Graph

Daily Weather History Graph

Search for Another Location

Airport:

Trip Planner

Search our weather history database for the weather conditions in past years. The results will help you decide how hot, cold, wet, or windy it might be!

Date:

Astronomy

Aug. 25, 2013 Rise Set
Actual Time 7:08 AM EDT 8:08 PM EDT
Civil Twilight 6:43 AM EDT 8:33 PM EDT
Nautical Twilight 6:13 AM EDT 9:03 PM EDT
Astronomical Twilight 5:43 AM EDT 9:33 PM EDT
Moon 11:02 PM EDT 11:46 AM EDT
Length of Visible Light 13h 50m
Length of Day
13h 00m
Waning Gibbous, 76% of the Moon is Illuminated
Aug 25
Waning Gibbous
Aug 28
Last Quarter
Sep 5
New
Sep 12
First Quarter
Sep 19
Full

Hourly Weather History & Observations

Time (EDT) Temp. Heat Index Dew Point Humidity Pressure Visibility Wind Dir Wind Speed Gust Speed Precip Events Conditions
12:28 AM 75.2 °F - 71.6 °F 89% 30.21 in 8.0 mi ENE 8.1 mph - N/A   Scattered Clouds
12:53 AM 75.0 °F - 72.0 °F 90% 30.21 in 8.0 mi ENE 9.2 mph - N/A   Scattered Clouds
1:53 AM 73.9 °F - 71.1 °F 91% 30.21 in 9.0 mi ENE 6.9 mph - N/A   Clear
2:53 AM 73.9 °F - 70.0 °F 87% 30.21 in 9.0 mi ENE 6.9 mph - N/A   Clear
3:53 AM 73.0 °F - 70.0 °F 90% 30.21 in 8.0 mi ENE 6.9 mph - N/A   Clear
4:53 AM 73.9 °F - 70.0 °F 87% 30.21 in 9.0 mi NE 5.8 mph - N/A   Overcast
5:53 AM 73.0 °F - 70.0 °F 90% 30.22 in 9.0 mi NE 9.2 mph - N/A   Mostly Cloudy
6:53 AM 73.9 °F - 70.0 °F 87% 30.23 in 10.0 mi ENE 10.4 mph - N/A   Overcast
7:53 AM 73.9 °F - 69.1 °F 85% 30.26 in 10.0 mi ENE 9.2 mph - N/A   Overcast
8:53 AM 75.0 °F - 69.1 °F 82% 30.26 in 10.0 mi ENE 9.2 mph - N/A   Partly Cloudy
9:53 AM 79.0 °F - 70.0 °F 74% 30.27 in 10.0 mi ENE 9.2 mph - N/A   Clear
10:53 AM 81.0 °F 84.1 °F 69.1 °F 67% 30.28 in 10.0 mi East 11.5 mph - N/A   Scattered Clouds
11:53 AM 82.9 °F 85.8 °F 68.0 °F 60% 30.28 in 10.0 mi East 11.5 mph - N/A   Partly Cloudy
11:56 AM 82.4 °F 85.4 °F 68.0 °F 62% 30.28 in 10.0 mi ENE 15.0 mph 18.4 mph N/A   Mostly Cloudy
12:53 PM 84.9 °F 88.2 °F 68.0 °F 57% 30.26 in 10.0 mi ENE 9.2 mph - N/A   Mostly Cloudy
12:55 PM 84.2 °F 86.6 °F 66.2 °F 55% 30.27 in 10.0 mi NE 10.4 mph - N/A   Mostly Cloudy
1:53 PM 84.9 °F 87.6 °F 66.9 °F 55% 30.24 in 10.0 mi ENE 12.7 mph - N/A   Mostly Cloudy
2:53 PM 86.0 °F 88.2 °F 66.0 °F 51% 30.22 in 10.0 mi ENE 11.5 mph 20.7 mph N/A   Mostly Cloudy
3:53 PM 84.9 °F 86.6 °F 64.9 °F 51% 30.20 in 10.0 mi ENE 12.7 mph - N/A   Mostly Cloudy
4:53 PM 84.9 °F 85.9 °F 63.0 °F 48% 30.20 in 10.0 mi ENE 11.5 mph 17.3 mph N/A   Partly Cloudy
5:53 PM 86.0 °F 87.3 °F 64.0 °F 48% 30.20 in 10.0 mi ENE 12.7 mph - N/A   Partly Cloudy
6:53 PM 84.0 °F 84.5 °F 62.1 °F 47% 30.20 in 10.0 mi ENE 12.7 mph - N/A   Clear
7:53 PM 80.1 °F 81.5 °F 63.0 °F 56% 30.21 in 10.0 mi ENE 6.9 mph - N/A   Clear
8:53 PM 78.1 °F - 63.0 °F 60% 30.23 in 10.0 mi NE 4.6 mph - N/A   Clear
9:53 PM 73.0 °F - 63.0 °F 71% 30.25 in 10.0 mi NE 5.8 mph - N/A   Clear
10:53 PM 73.0 °F - 63.0 °F 71% 30.26 in 10.0 mi NE 6.9 mph - N/A   Clear
11:53 PM 72.0 °F - 62.1 °F 71% 30.27 in 10.0 mi NE 6.9 mph - N/A   Clear